Back to catalog

CZ-4 DEB

AliveSSO
NORAD 28073·DEBRIS·🇨🇳 China

Launched Oct 14, 1999 from Taiyuan Satellite Launch Center

Loading…

Next Passes (next 24 hours)

TLE

FreshSource: Space-Track

Epoch: Sep 14, 2026, 10:16 UTC

1 28073U 99057ND  26257.42788924  .00000230  00000-0  77172-4 0  9999
2 28073  98.5870 312.3864 0080801 357.1081  15.3966 14.44692313243969

Track CZ-4 DEB in real time with AllMySat

Download on the App Store